Weather History for Hamilton, OH

Change the Weather History Date:

Wednesday, April 18, 2012

  Actual Average (KCVG) Record (KCVG)
Temperature  
Mean Temperature 54 °F 55 °F  
Max Temperature 69 °F 66 °F 87 °F (1896)
Min Temperature 39 °F 45 °F 18 °F (1875)
Degree Days  
Heating Degree Days 12 11  
Month to date heating degree days 238  
Since 1 July heating degree days 4731  
Cooling Degree Days 0 1  
Month to date cooling degree days 6  
Year to date cooling degree days 6  
Growing Degree Days 4 (Base 50)    
Moisture  
Dew Point 40 °F    
Average Humidity 61    
Maximum Humidity 83    
Minimum Humidity 31    
Precipitation  
Precipitation 0.00 in 0.13 in 1.93 in (1887)
Month to date precipitation 2.27  
Year to date precipitation 12.04  
Snow  
Snow 0.00 in 0.10 in 3.30 in (1953)
Month to date snowfall 0.5  
Since 1 July snowfall 22.1  
Snow Depth -    
Sea Level Pressure  
Sea Level Pressure 30.18 in    
Wind  
Wind Speed 0 mph (SE)    
Max Wind Speed 5 mph    
Max Gust Speed -    
Visibility 10 miles    
Events      
T = Trace of Precipitation, MM = Missing Value Source: NWS Daily Summary

Daily Weather History Graph

Daily Weather History Graph

Search for Another Location

Airport:

Trip Planner

Search our weather history database for the weather conditions in past years. The results will help you decide how hot, cold, wet, or windy it might be!

Date:

Astronomy

Apr. 18, 2012 Rise Set
Actual Time 6:56 AM EDT 8:19 PM EDT
Civil Twilight 6:28 AM EDT 8:47 PM EDT
Nautical Twilight 5:54 AM EDT 9:20 PM EDT
Astronomical Twilight 5:19 AM EDT 9:56 PM EDT
Moon 5:20 AM EDT (4/18) 6:09 PM EDT (4/18)
Length of Visible Light 14h 19m
Length of Day
13h 23m
Waning Crescent, 6% of the Moon is Illuminated
Apr 18
Waning Crescent
Apr 21
New
Apr 29
First Quarter
May 5
Full
May 12
Last Quarter

Hourly Weather History & Observations

Time (EDT) Temp. Dew Point Humidity Pressure Visibility Wind Dir Wind Speed Gust Speed Precip Events Conditions
12:53 AM 48.9 °F 43.0 °F 80% 30.28 in 10.0 mi Calm Calm - N/A   Clear
1:53 AM 50.0 °F 43.0 °F 77% 30.26 in 10.0 mi Calm Calm - N/A   Clear
2:53 AM 48.9 °F 42.1 °F 77% 30.25 in 10.0 mi Calm Calm - N/A   Clear
3:53 AM 46.0 °F 39.9 °F 79% 30.25 in 9.0 mi Calm Calm - N/A   Clear
4:53 AM 42.1 °F 36.0 °F 79% 30.24 in 10.0 mi Calm Calm - N/A   Clear
5:53 AM 43.0 °F 37.0 °F 80% 30.24 in 10.0 mi Calm Calm - N/A   Clear
6:53 AM 39.9 °F 35.1 °F 83% 30.25 in 8.0 mi Calm Calm - N/A   Clear
7:53 AM 46.0 °F 39.0 °F 76% 30.25 in 10.0 mi Calm Calm - N/A   Clear
8:53 AM 51.1 °F 41.0 °F 68% 30.25 in 10.0 mi Calm Calm - N/A   Clear
9:53 AM 54.0 °F 41.0 °F 62% 30.25 in 10.0 mi Calm Calm - N/A   Clear
10:53 AM 57.9 °F 43.0 °F 58% 30.23 in 10.0 mi Calm Calm - N/A   Clear
11:53 AM 62.1 °F 43.0 °F 50% 30.22 in 10.0 mi Calm Calm - N/A   Clear
12:53 PM 64.9 °F 39.9 °F 40% 30.19 in 10.0 mi Calm Calm - N/A   Partly Cloudy
1:53 PM 66.9 °F 37.9 °F 34% 30.17 in 10.0 mi South 4.6 mph - N/A   Clear
2:53 PM 68.0 °F 39.9 °F 36% 30.14 in 10.0 mi Calm Calm - N/A   Clear
3:53 PM 66.9 °F 37.9 °F 34% 30.11 in 10.0 mi East 3.5 mph - N/A   Clear
4:53 PM 68.0 °F 39.9 °F 36% 30.10 in 10.0 mi Variable 4.6 mph - N/A   Clear
5:53 PM 68.0 °F 36.0 °F 31% 30.08 in 10.0 mi Calm Calm - N/A   Clear
6:53 PM 66.9 °F 37.9 °F 34% 30.08 in 10.0 mi Calm Calm - N/A   Clear
7:53 PM 60.1 °F 44.1 °F 55% 30.07 in 10.0 mi Calm Calm - N/A   Clear
8:53 PM 53.1 °F 42.1 °F 66% 30.07 in 10.0 mi Calm Calm - N/A   Clear
9:53 PM 50.0 °F 41.0 °F 71% 30.09 in 10.0 mi Calm Calm - N/A   Clear
10:53 PM 48.0 °F 39.9 °F 74% 30.08 in 10.0 mi Calm Calm - N/A   Clear
11:53 PM 46.9 °F 39.9 °F 77% 30.08 in 10.0 mi Calm Calm - N/A   Clear